Lid_Strength_Index
2 3 5 6 6 7 7 7 7 8 8 8 8 8 8 9 9 9 9 9 10 10
2 3 4 5 6 7 7 7 7 8 8 8 9 9 10 9 10 9 9 9 9 11
4 4 5 5 6 6 7 7 8 8 9 9 10 10 10 10 10 10 10 10 11 11
6 6 6 6 7 7 8 8 9 9 10 11 11 11 11 11 10 11 11 11 11 12
6 7 8 8 8 9 9 9 9 10 11 11 12 12 12 12 11 11 12 12 12 13
8 8 10 10 10 10 10 10 10 10 12 12 13 14 14 13 12 13 12 12 12 13
8 10 11 11 11 12 11 11 12 11 12 13 13 13 14 13 13 13 13 13 13 12
10 11 12 13 14 13 12 12 13 13 13 14 14 14 14 13 13 13 13 13 12 12
10 11 12 13 13 13 13 14 14 14 14 14 13 13 13 14 15 13 13 14 13 12
9 10 11 12 13 13 13 13 13 12 12 13 13 13 12 12 13 13 14 14 14 14
8 10 10 11 11 12 11 11 12 12 12 12 12 12 12 13 13 14 13 14 14 15
6 8 9 10 10 10 11 11 11 12 12 12 12 12 12 13 13 14 15 14 15 15
5 7 9 9 10 10 10 11 11 11 12 12 13 12 12 13 14 15 15 15 14 14
4 6 8 9 9 10 10 10 11 11 11 11 11 13 12 12 14 15 15 15 15 15